Time,TemperatureF,DewpointF,PressureIn,WindDirection,WindDirectionDegrees,WindSpeedMPH,WindSpeedGustMPH,Humidity,HourlyPrecipIn,Conditions,Clouds,dailyrainin,SoftwareType,DateUTC
2013-05-09 00:01:00,57.0,55.9,29.93,NNE,22,2.0,5.0,96,-2.55,,,0.00,Weather View 32 v70,2013-05-09 04:01:00,
2013-05-09 00:06:00,57.0,55.9,29.93,NNW,338,2.0,5.0,96,-2.55,,,0.00,Weather View 32 v70,2013-05-09 04:06:00,
2013-05-09 00:11:00,57.0,55.9,29.93,NNW,338,3.0,5.0,96,-2.55,,,0.00,Weather View 32 v70,2013-05-09 04:11:00,
2013-05-09 00:16:00,57.0,55.9,29.93,NNE,22,3.0,5.0,96,-2.55,,,0.00,Weather View 32 v70,2013-05-09 04:16:00,
2013-05-09 00:21:00,57.0,55.9,29.93,ENE,68,1.0,5.0,96,-2.55,,,0.00,Weather View 32 v70,2013-05-09 04:21:00,
2013-05-09 00:26:00,57.0,55.9,29.93,North,0,0.0,5.0,96,-2.55,,,0.00,Weather View 32 v70,2013-05-09 04:26:00,
2013-05-09 00:31:00,57.0,55.9,29.93,NW,315,1.0,5.0,96,-2.55,,,0.00,Weather View 32 v70,2013-05-09 04:31:00,
2013-05-09 00:36:00,57.0,55.9,29.93,West,270,2.0,5.0,96,-2.55,,,0.00,Weather View 32 v70,2013-05-09 04:36:00,
2013-05-09 00:41:00,57.0,55.9,29.93,West,270,1.0,5.0,96,-2.55,,,0.00,Weather View 32 v70,2013-05-09 04:41:00,
2013-05-09 00:46:00,57.0,55.9,29.93,North,0,0.0,5.0,96,-2.55,,,0.00,Weather View 32 v70,2013-05-09 04:46:00,
2013-05-09 00:51:00,57.0,55.9,29.93,NNW,338,0.0,5.0,96,-2.55,,,0.00,Weather View 32 v70,2013-05-09 04:51:00,
2013-05-09 00:56:00,56.0,54.9,29.93,NNW,338,1.0,5.0,96,-2.55,,,0.00,Weather View 32 v70,2013-05-09 04:56:00,
2013-05-09 01:01:00,56.0,54.9,29.92,NNE,22,1.0,5.0,96,0.00,,,0.00,Weather View 32 v70,2013-05-09 05:01:00,
2013-05-09 01:06:00,56.0,54.6,29.92,NNE,22,1.0,5.0,95,0.00,,,0.00,Weather View 32 v70,2013-05-09 05:06:00,
2013-05-09 01:11:00,56.0,54.6,29.92,NNE,22,0.0,4.0,95,0.00,,,0.00,Weather View 32 v70,2013-05-09 05:11:00,
2013-05-09 01:16:00,56.0,54.6,29.92,ENE,68,1.0,3.0,95,0.00,,,0.00,Weather View 32 v70,2013-05-09 05:16:00,
2013-05-09 01:21:00,56.0,54.6,29.92,NNE,22,0.0,3.0,95,0.00,,,0.00,Weather View 32 v70,2013-05-09 05:21:00,
2013-05-09 01:26:00,56.0,54.6,29.92,WNW,292,1.0,3.0,95,0.00,,,0.00,Weather View 32 v70,2013-05-09 05:26:00,
2013-05-09 01:31:00,56.0,54.6,29.92,WNW,292,0.0,3.0,95,0.00,,,0.00,Weather View 32 v70,2013-05-09 05:31:00,
2013-05-09 01:36:00,57.0,55.6,29.92,West,270,0.0,3.0,95,0.00,,,0.00,Weather View 32 v70,2013-05-09 05:36:00,
2013-05-09 01:41:00,57.0,55.6,29.91,NNW,338,0.0,2.0,95,0.00,,,0.00,Weather View 32 v70,2013-05-09 05:41:00,
2013-05-09 01:46:00,56.0,54.3,29.91,WNW,292,1.0,2.0,94,0.01,,,0.01,Weather View 32 v70,2013-05-09 05:46:00,
2013-05-09 01:51:00,56.0,54.6,29.91,WNW,292,1.0,2.0,95,0.01,,,0.01,Weather View 32 v70,2013-05-09 05:51:00,
2013-05-09 01:56:00,56.0,54.6,29.91,NNE,22,1.0,2.0,95,0.01,,,0.01,Weather View 32 v70,2013-05-09 05:56:00,
2013-05-09 02:01:00,56.0,54.3,29.91,NW,315,2.0,2.0,94,0.01,,,0.01,Weather View 32 v70,2013-05-09 06:01:00,
2013-05-09 02:06:00,56.0,54.3,29.91,NNW,338,0.0,3.0,94,0.01,,,0.02,Weather View 32 v70,2013-05-09 06:06:00,
2013-05-09 02:11:00,56.0,54.3,29.90,WNW,292,2.0,3.0,94,0.02,,,0.02,Weather View 32 v70,2013-05-09 06:11:00,
2013-05-09 02:16:00,56.0,54.3,29.90,NW,315,1.0,3.0,94,0.02,,,0.02,Weather View 32 v70,2013-05-09 06:16:00,
2013-05-09 02:21:00,56.0,54.3,29.90,NNW,338,2.0,4.0,94,0.02,,,0.02,Weather View 32 v70,2013-05-09 06:21:00,
2013-05-09 02:26:00,56.0,54.3,29.90,West,270,2.0,5.0,94,0.02,,,0.02,Weather View 32 v70,2013-05-09 06:26:00,
2013-05-09 02:31:00,56.0,54.3,29.90,West,270,1.0,5.0,94,0.02,,,0.02,Weather View 32 v70,2013-05-09 06:31:00,
2013-05-09 02:36:00,56.0,54.3,29.90,WNW,292,2.0,5.0,94,0.02,,,0.02,Weather View 32 v70,2013-05-09 06:36:00,
2013-05-09 02:41:00,56.0,54.3,29.90,North,0,1.0,5.0,94,0.02,,,0.02,Weather View 32 v70,2013-05-09 06:41:00,
2013-05-09 02:46:00,56.0,54.3,29.89,WNW,292,2.0,5.0,94,0.01,,,0.02,Weather View 32 v70,2013-05-09 06:46:00,
2013-05-09 02:51:00,56.0,54.3,29.89,NNW,338,1.0,5.0,94,0.01,,,0.02,Weather View 32 v70,2013-05-09 06:51:00,
2013-05-09 02:56:00,56.0,54.3,29.89,West,270,2.0,5.0,94,0.01,,,0.02,Weather View 32 v70,2013-05-09 06:56:00,
2013-05-09 03:01:00,56.0,54.0,29.89,West,270,2.0,5.0,93,0.01,,,0.02,Weather View 32 v70,2013-05-09 07:01:00,
2013-05-09 03:06:00,56.0,54.0,29.89,SW,225,2.0,5.0,93,0.01,,,0.02,Weather View 32 v70,2013-05-09 07:06:00,
2013-05-09 03:11:00,56.0,54.0,29.89,NW,315,2.0,5.0,93,0.00,,,0.02,Weather View 32 v70,2013-05-09 07:11:00,
2013-05-09 03:16:00,56.0,54.0,29.89,West,270,3.0,5.0,93,0.00,,,0.02,Weather View 32 v70,2013-05-09 07:16:00,
2013-05-09 03:21:00,56.0,54.0,29.89,SW,225,1.0,5.0,93,0.00,,,0.02,Weather View 32 v70,2013-05-09 07:21:00,
2013-05-09 03:26:00,56.0,54.0,29.88,NNW,338,3.0,4.0,93,0.00,,,0.02,Weather View 32 v70,2013-05-09 07:26:00,
2013-05-09 03:31:00,56.0,54.0,29.88,North,0,1.0,4.0,93,0.00,,,0.02,Weather View 32 v70,2013-05-09 07:31:00,
2013-05-09 03:36:00,56.0,54.0,29.88,WNW,292,1.0,6.0,93,0.00,,,0.02,Weather View 32 v70,2013-05-09 07:36:00,
2013-05-09 03:41:00,56.0,54.0,29.88,NNW,338,1.0,6.0,93,0.00,,,0.02,Weather View 32 v70,2013-05-09 07:41:00,
2013-05-09 03:46:00,56.0,54.0,29.88,North,0,3.0,6.0,93,0.00,,,0.02,Weather View 32 v70,2013-05-09 07:46:00,
2013-05-09 03:51:00,56.0,54.0,29.88,WNW,292,2.0,6.0,93,0.00,,,0.02,Weather View 32 v70,2013-05-09 07:51:00,
2013-05-09 03:56:00,56.0,54.0,29.88,North,0,2.0,6.0,93,0.00,,,0.02,Weather View 32 v70,2013-05-09 07:56:00,
2013-05-09 04:01:00,56.0,54.0,29.88,NW,315,2.0,6.0,93,0.00,,,0.02,Weather View 32 v70,2013-05-09 08:01:00,
2013-05-09 04:06:00,56.0,53.7,29.88,WNW,292,1.0,6.0,92,0.00,,,0.02,Weather View 32 v70,2013-05-09 08:06:00,
2013-05-09 04:11:00,56.0,53.7,29.88,WNW,292,2.0,6.0,92,0.00,,,0.02,Weather View 32 v70,2013-05-09 08:11:00,
2013-05-09 04:16:00,56.0,53.7,29.88,West,270,1.0,6.0,92,0.00,,,0.02,Weather View 32 v70,2013-05-09 08:16:00,
2013-05-09 04:21:00,56.0,53.7,29.88,NNW,338,1.0,6.0,92,0.00,,,0.02,Weather View 32 v70,2013-05-09 08:21:00,
2013-05-09 04:26:00,56.0,53.7,29.88,North,0,1.0,6.0,92,0.00,,,0.02,Weather View 32 v70,2013-05-09 08:26:00,
2013-05-09 04:31:00,56.0,53.7,29.88,NW,315,0.0,6.0,92,0.00,,,0.02,Weather View 32 v70,2013-05-09 08:31:00,
2013-05-09 04:36:00,56.0,53.7,29.88,NNW,338,0.0,6.0,92,0.00,,,0.02,Weather View 32 v70,2013-05-09 08:36:00,
2013-05-09 04:41:00,56.0,53.7,29.88,North,0,0.0,6.0,92,0.00,,,0.02,Weather View 32 v70,2013-05-09 08:41:00,
2013-05-09 04:46:00,56.0,53.7,29.88,NNW,338,1.0,5.0,92,0.00,,,0.02,Weather View 32 v70,2013-05-09 08:46:00,
2013-05-09 04:51:00,56.0,53.7,29.88,NNW,338,0.0,5.0,92,0.00,,,0.02,Weather View 32 v70,2013-05-09 08:51:00,
2013-05-09 04:56:00,56.0,53.7,29.88,North,0,1.0,3.0,92,0.00,,,0.02,Weather View 32 v70,2013-05-09 08:56:00,
2013-05-09 05:01:00,55.0,52.7,29.88,WNW,292,1.0,3.0,92,0.00,,,0.02,Weather View 32 v70,2013-05-09 09:01:00,
2013-05-09 05:06:00,55.0,52.4,29.88,NNW,338,1.0,3.0,91,0.00,,,0.02,Weather View 32 v70,2013-05-09 09:06:00,
2013-05-09 05:11:00,55.0,52.4,29.88,NW,315,2.0,3.0,91,0.00,,,0.02,Weather View 32 v70,2013-05-09 09:11:00,
2013-05-09 05:16:00,55.0,52.4,29.89,NNW,338,2.0,3.0,91,0.01,,,0.03,Weather View 32 v70,2013-05-09 09:16:00,
2013-05-09 05:21:00,55.0,52.4,29.89,NE,45,0.0,3.0,91,0.02,,,0.04,Weather View 32 v70,2013-05-09 09:21:00,
2013-05-09 05:26:00,55.0,52.4,29.89,NNE,22,1.0,3.0,91,0.03,,,0.05,Weather View 32 v70,2013-05-09 09:26:00,
2013-05-09 05:31:00,55.0,52.4,29.89,NNW,338,0.0,3.0,91,0.03,,,0.05,Weather View 32 v70,2013-05-09 09:31:00,
2013-05-09 05:36:00,55.0,52.4,29.89,NW,315,1.0,3.0,91,0.03,,,0.05,Weather View 32 v70,2013-05-09 09:36:00,
2013-05-09 05:41:00,55.0,52.4,29.89,NNW,338,3.0,3.0,91,0.03,,,0.05,Weather View 32 v70,2013-05-09 09:41:00,
2013-05-09 05:46:00,55.0,52.4,29.89,NW,315,1.0,5.0,91,0.03,,,0.06,Weather View 32 v70,2013-05-09 09:46:00,
2013-05-09 05:51:00,56.0,53.4,29.89,WNW,292,3.0,5.0,91,0.04,,,0.06,Weather View 32 v70,2013-05-09 09:51:00,
2013-05-09 05:56:00,56.0,53.4,29.89,NNW,338,3.0,5.0,91,0.04,,,0.06,Weather View 32 v70,2013-05-09 09:56:00,
2013-05-09 06:01:00,55.0,52.4,29.89,NNW,338,3.0,5.0,91,0.06,,,0.09,Weather View 32 v70,2013-05-09 10:01:00,
2013-05-09 06:06:00,55.0,52.4,29.89,North,0,3.0,6.0,91,0.09,,,0.11,Weather View 32 v70,2013-05-09 10:06:00,
2013-05-09 06:11:00,55.0,52.1,29.89,NNW,338,2.0,6.0,90,0.10,,,0.13,Weather View 32 v70,2013-05-09 10:11:00,
2013-05-09 06:16:00,55.0,52.1,29.89,NNE,22,0.0,6.0,90,0.10,,,0.13,Weather View 32 v70,2013-05-09 10:16:00,
2013-05-09 06:21:00,56.0,53.1,29.89,WNW,292,1.0,6.0,90,0.10,,,0.14,Weather View 32 v70,2013-05-09 10:21:00,
2013-05-09 06:26:00,56.0,53.1,29.89,SSW,202,2.0,6.0,90,0.09,,,0.14,Weather View 32 v70,2013-05-09 10:26:00,
2013-05-09 06:31:00,56.0,53.1,29.89,WNW,292,3.0,6.0,90,0.09,,,0.14,Weather View 32 v70,2013-05-09 10:31:00,
2013-05-09 06:36:00,55.0,52.1,29.89,SW,225,3.0,6.0,90,0.09,,,0.15,Weather View 32 v70,2013-05-09 10:36:00,
2013-05-09 06:41:00,55.0,52.1,29.89,West,270,3.0,6.0,90,0.10,,,0.16,Weather View 32 v70,2013-05-09 10:41:00,
2013-05-09 06:46:00,55.0,52.1,29.89,WSW,248,3.0,6.0,90,0.11,,,0.16,Weather View 32 v70,2013-05-09 10:46:00,
2013-05-09 06:51:00,55.0,52.1,29.89,WSW,248,3.0,6.0,90,0.11,,,0.17,Weather View 32 v70,2013-05-09 10:51:00,
2013-05-09 06:56:00,56.0,53.1,29.89,SW,225,3.0,6.0,90,0.12,,,0.18,Weather View 32 v70,2013-05-09 10:56:00,
2013-05-09 07:01:00,55.0,52.1,29.89,West,270,3.0,6.0,90,0.11,,,0.19,Weather View 32 v70,2013-05-09 11:01:00,
2013-05-09 07:06:00,56.0,53.1,29.89,West,270,3.0,6.0,90,0.09,,,0.20,Weather View 32 v70,2013-05-09 11:06:00,
2013-05-09 07:11:00,55.0,52.1,29.88,West,270,4.0,5.0,90,0.09,,,0.21,Weather View 32 v70,2013-05-09 11:11:00,
2013-05-09 07:16:00,56.0,52.8,29.88,West,270,3.0,5.0,89,0.09,,,0.22,Weather View 32 v70,2013-05-09 11:16:00,
2013-05-09 07:21:00,56.0,52.8,29.88,WNW,292,6.0,6.0,89,0.08,,,0.23,Weather View 32 v70,2013-05-09 11:21:00,
2013-05-09 07:26:00,56.0,52.8,29.89,West,270,2.0,6.0,89,0.10,,,0.24,Weather View 32 v70,2013-05-09 11:26:00,
2013-05-09 07:31:00,56.0,52.8,29.89,WNW,292,3.0,6.0,89,0.10,,,0.24,Weather View 32 v70,2013-05-09 11:31:00,
2013-05-09 07:36:00,56.0,52.8,29.89,WNW,292,1.0,6.0,89,0.10,,,0.24,Weather View 32 v70,2013-05-09 11:36:00,
2013-05-09 07:41:00,56.0,52.8,29.89,NNW,338,1.0,6.0,89,0.10,,,0.25,Weather View 32 v70,2013-05-09 11:41:00,
2013-05-09 07:46:00,56.0,52.5,29.89,North,0,2.0,6.0,88,0.09,,,0.25,Weather View 32 v70,2013-05-09 11:46:00,
2013-05-09 07:51:00,56.0,52.8,29.89,North,0,0.0,6.0,89,0.08,,,0.25,Weather View 32 v70,2013-05-09 11:51:00,
2013-05-09 07:56:00,56.0,52.5,29.90,NNE,22,1.0,6.0,88,0.07,,,0.25,Weather View 32 v70,2013-05-09 11:56:00,
2013-05-09 08:01:00,56.0,52.5,29.90,NNW,338,2.0,6.0,88,0.06,,,0.25,Weather View 32 v70,2013-05-09 12:01:00,
2013-05-09 08:06:00,56.0,52.5,29.90,NNW,338,1.0,6.0,88,0.05,,,0.25,Weather View 32 v70,2013-05-09 12:06:00,
2013-05-09 08:11:00,56.0,52.5,29.90,NE,45,0.0,6.0,88,0.04,,,0.25,Weather View 32 v70,2013-05-09 12:11:00,
2013-05-09 08:16:00,56.0,52.5,29.90,North,0,2.0,6.0,88,0.03,,,0.25,Weather View 32 v70,2013-05-09 12:16:00,
2013-05-09 08:21:00,57.0,53.5,29.90,WNW,292,3.0,6.0,88,0.03,,,0.25,Weather View 32 v70,2013-05-09 12:21:00,
2013-05-09 08:26:00,57.0,53.2,29.90,WNW,292,4.0,5.0,87,0.01,,,0.25,Weather View 32 v70,2013-05-09 12:26:00,
2013-05-09 08:31:00,57.0,53.2,29.90,WNW,292,1.0,5.0,87,0.01,,,0.25,Weather View 32 v70,2013-05-09 12:31:00,
2013-05-09 08:36:00,57.0,53.5,29.90,WNW,292,3.0,5.0,88,0.01,,,0.25,Weather View 32 v70,2013-05-09 12:36:00,
2013-05-09 08:41:00,57.0,53.2,29.90,West,270,3.0,5.0,87,0.00,,,0.25,Weather View 32 v70,2013-05-09 12:41:00,
2013-05-09 08:46:00,57.0,53.2,29.90,WNW,292,3.0,5.0,87,0.00,,,0.25,Weather View 32 v70,2013-05-09 12:46:00,
2013-05-09 08:51:00,57.0,53.2,29.90,WNW,292,3.0,5.0,87,0.01,,,0.26,Weather View 32 v70,2013-05-09 12:51:00,
2013-05-09 08:56:00,57.0,53.2,29.90,West,270,1.0,5.0,87,0.01,,,0.26,Weather View 32 v70,2013-05-09 12:56:00,
2013-05-09 09:01:00,57.0,52.8,29.90,West,270,3.0,5.0,86,0.01,,,0.26,Weather View 32 v70,2013-05-09 13:01:00,
2013-05-09 09:06:00,57.0,52.8,29.90,NW,315,1.0,5.0,86,0.01,,,0.26,Weather View 32 v70,2013-05-09 13:06:00,
2013-05-09 09:11:00,57.0,52.8,29.90,West,270,2.0,5.0,86,0.01,,,0.26,Weather View 32 v70,2013-05-09 13:11:00,
2013-05-09 09:16:00,58.0,53.8,29.90,NW,315,1.0,5.0,86,0.01,,,0.26,Weather View 32 v70,2013-05-09 13:16:00,
2013-05-09 09:21:00,58.0,53.8,29.90,NNW,338,1.0,5.0,86,0.01,,,0.26,Weather View 32 v70,2013-05-09 13:21:00,
2013-05-09 09:26:00,58.0,53.5,29.90,North,0,2.0,5.0,85,0.01,,,0.26,Weather View 32 v70,2013-05-09 13:26:00,
2013-05-09 09:31:00,58.0,53.5,29.90,West,270,3.0,5.0,85,0.01,,,0.26,Weather View 32 v70,2013-05-09 13:31:00,
2013-05-09 09:36:00,58.0,53.5,29.90,WNW,292,1.0,5.0,85,0.01,,,0.26,Weather View 32 v70,2013-05-09 13:36:00,
2013-05-09 09:41:00,58.0,53.5,29.90,NW,315,2.0,5.0,85,0.01,,,0.26,Weather View 32 v70,2013-05-09 13:41:00,
2013-05-09 09:46:00,59.0,54.2,29.90,SW,225,2.0,5.0,84,0.01,,,0.26,Weather View 32 v70,2013-05-09 13:46:00,
2013-05-09 09:51:00,58.0,53.2,29.90,NNW,338,3.0,5.0,84,0.00,,,0.26,Weather View 32 v70,2013-05-09 13:51:00,
2013-05-09 09:56:00,59.0,54.5,29.90,WSW,248,2.0,5.0,85,0.00,,,0.26,Weather View 32 v70,2013-05-09 13:56:00,
2013-05-09 10:01:00,59.0,54.2,29.90,NNW,338,3.0,5.0,84,0.00,,,0.26,Weather View 32 v70,2013-05-09 14:01:00,
2013-05-09 10:06:00,59.0,54.2,29.90,NE,45,1.0,5.0,84,0.00,,,0.26,Weather View 32 v70,2013-05-09 14:06:00,
2013-05-09 10:11:00,60.0,54.8,29.90,SSW,202,2.0,5.0,83,0.00,,,0.26,Weather View 32 v70,2013-05-09 14:11:00,
2013-05-09 10:16:00,60.0,54.8,29.90,SW,225,1.0,5.0,83,0.00,,,0.26,Weather View 32 v70,2013-05-09 14:16:00,
2013-05-09 10:21:00,61.0,55.5,29.90,South,180,3.0,5.0,82,0.00,,,0.26,Weather View 32 v70,2013-05-09 14:21:00,
2013-05-09 10:26:00,60.0,55.1,29.90,SW,225,3.0,5.0,84,0.00,,,0.26,Weather View 32 v70,2013-05-09 14:26:00,
2013-05-09 10:31:00,60.0,55.1,29.90,SSW,202,2.0,5.0,84,0.00,,,0.26,Weather View 32 v70,2013-05-09 14:31:00,
2013-05-09 10:36:00,60.0,54.8,29.90,West,270,3.0,5.0,83,0.00,,,0.26,Weather View 32 v70,2013-05-09 14:36:00,
2013-05-09 10:41:00,61.0,55.5,29.89,South,180,4.0,5.0,82,0.00,,,0.26,Weather View 32 v70,2013-05-09 14:41:00,
2013-05-09 10:46:00,61.0,55.8,29.89,SSW,202,5.0,6.0,83,0.00,,,0.26,Weather View 32 v70,2013-05-09 14:46:00,
2013-05-09 10:51:00,62.0,56.8,29.89,SW,225,1.0,6.0,83,0.00,,,0.26,Weather View 32 v70,2013-05-09 14:51:00,
2013-05-09 10:56:00,63.0,57.4,29.90,SW,225,6.0,6.0,82,0.00,,,0.26,Weather View 32 v70,2013-05-09 14:56:00,
2013-05-09 11:01:00,63.0,58.4,29.90,WNW,292,4.0,7.0,85,0.00,,,0.26,Weather View 32 v70,2013-05-09 15:01:00,
2013-05-09 11:06:00,62.0,58.4,29.90,SSW,202,5.0,7.0,88,0.00,,,0.26,Weather View 32 v70,2013-05-09 15:06:00,
2013-05-09 11:11:00,62.0,59.3,29.90,SSW,202,4.0,7.0,91,0.00,,,0.26,Weather View 32 v70,2013-05-09 15:11:00,
2013-05-09 11:16:00,63.0,60.9,29.90,SW,225,3.0,7.0,93,0.00,,,0.26,Weather View 32 v70,2013-05-09 15:16:00,
2013-05-09 11:21:00,63.0,62.1,29.90,WSW,248,3.0,7.0,97,0.00,,,0.26,Weather View 32 v70,2013-05-09 15:21:00,
2013-05-09 11:26:00,63.0,62.7,29.90,SSW,202,3.0,7.0,99,0.00,,,0.26,Weather View 32 v70,2013-05-09 15:26:00,
2013-05-09 11:31:00,63.0,63.0,29.90,South,180,3.0,9.0,100,0.00,,,0.26,Weather View 32 v70,2013-05-09 15:31:00,
2013-05-09 11:36:00,63.0,63.0,29.90,WSW,248,5.0,9.0,100,0.00,,,0.26,Weather View 32 v70,2013-05-09 15:36:00,
2013-05-09 11:41:00,63.0,63.0,29.89,WNW,292,1.0,9.0,100,0.00,,,0.26,Weather View 32 v70,2013-05-09 15:41:00,
2013-05-09 11:46:00,63.0,63.0,29.89,NNW,338,3.0,9.0,100,0.00,,,0.26,Weather View 32 v70,2013-05-09 15:46:00,
2013-05-09 11:51:00,64.0,64.0,29.89,SW,225,3.0,9.0,100,0.00,,,0.26,Weather View 32 v70,2013-05-09 15:51:00,
2013-05-09 11:56:00,64.0,64.0,29.89,West,270,3.0,9.0,100,0.00,,,0.26,Weather View 32 v70,2013-05-09 15:56:00,
2013-05-09 12:01:00,64.0,64.0,29.89,South,180,4.0,9.0,100,0.00,,,0.26,Weather View 32 v70,2013-05-09 16:01:00,
2013-05-09 12:06:00,64.0,63.4,29.89,South,180,5.0,9.0,98,0.00,,,0.26,Weather View 32 v70,2013-05-09 16:06:00,
2013-05-09 12:11:00,64.0,62.8,29.89,SSW,202,4.0,9.0,96,0.00,,,0.26,Weather View 32 v70,2013-05-09 16:11:00,
2013-05-09 12:16:00,64.0,62.5,29.89,West,270,3.0,9.0,95,0.00,,,0.26,Weather View 32 v70,2013-05-09 16:16:00,
2013-05-09 12:21:00,64.0,62.5,29.89,West,270,5.0,9.0,95,0.00,,,0.26,Weather View 32 v70,2013-05-09 16:21:00,
2013-05-09 12:26:00,65.0,63.5,29.89,WSW,248,5.0,9.0,95,0.00,,,0.26,Weather View 32 v70,2013-05-09 16:26:00,
2013-05-09 12:31:00,65.0,62.3,29.88,SW,225,3.0,9.0,91,0.00,,,0.26,Weather View 32 v70,2013-05-09 16:31:00,
2013-05-09 12:36:00,65.0,61.0,29.88,WSW,248,4.0,10.0,87,0.00,,,0.26,Weather View 32 v70,2013-05-09 16:36:00,
2013-05-09 12:41:00,66.0,61.3,29.88,SSE,158,4.0,10.0,85,0.00,,,0.26,Weather View 32 v70,2013-05-09 16:41:00,
2013-05-09 12:46:00,66.0,59.6,29.88,SW,225,3.0,10.0,80,0.00,,,0.26,Weather View 32 v70,2013-05-09 16:46:00,
2013-05-09 12:51:00,67.0,59.9,29.88,SE,135,3.0,10.0,78,0.00,,,0.26,Weather View 32 v70,2013-05-09 16:51:00,
2013-05-09 12:56:00,67.0,60.2,29.88,WNW,292,3.0,10.0,79,0.00,,,0.26,Weather View 32 v70,2013-05-09 16:56:00,
2013-05-09 13:01:00,67.0,59.9,29.87,SW,225,5.0,10.0,78,0.00,,,0.26,Weather View 32 v70,2013-05-09 17:01:00,
2013-05-09 13:06:00,66.0,58.2,29.87,SW,225,2.0,10.0,76,0.00,,,0.26,Weather View 32 v70,2013-05-09 17:06:00,
2013-05-09 13:11:00,67.0,59.5,29.87,WSW,248,3.0,10.0,77,0.00,,,0.26,Weather View 32 v70,2013-05-09 17:11:00,
2013-05-09 13:16:00,68.0,59.4,29.87,SW,225,3.0,11.0,74,0.00,,,0.26,Weather View 32 v70,2013-05-09 17:16:00,
2013-05-09 13:21:00,69.0,60.0,29.87,SSE,158,3.0,11.0,73,0.00,,,0.26,Weather View 32 v70,2013-05-09 17:21:00,
2013-05-09 13:26:00,69.0,59.2,29.87,SSE,158,6.0,11.0,71,0.00,,,0.26,Weather View 32 v70,2013-05-09 17:26:00,
2013-05-09 13:31:00,69.0,58.0,29.87,ESE,112,5.0,11.0,68,0.00,,,0.26,Weather View 32 v70,2013-05-09 17:31:00,
2013-05-09 13:36:00,68.0,58.2,29.87,SE,135,6.0,11.0,71,0.00,,,0.26,Weather View 32 v70,2013-05-09 17:36:00,
2013-05-09 13:41:00,68.0,59.4,29.87,SSE,158,6.0,11.0,74,0.00,,,0.26,Weather View 32 v70,2013-05-09 17:41:00,
2013-05-09 13:46:00,68.0,59.0,29.87,South,180,5.0,11.0,73,0.00,,,0.26,Weather View 32 v70,2013-05-09 17:46:00,
2013-05-09 13:51:00,68.0,58.6,29.86,SSW,202,5.0,11.0,72,0.00,,,0.26,Weather View 32 v70,2013-05-09 17:51:00,
2013-05-09 13:56:00,68.0,58.2,29.86,ENE,68,4.0,11.0,71,0.00,,,0.26,Weather View 32 v70,2013-05-09 17:56:00,
2013-05-09 14:01:00,68.0,57.8,29.86,SE,135,3.0,11.0,70,0.00,,,0.26,Weather View 32 v70,2013-05-09 18:01:00,
2013-05-09 14:06:00,68.0,58.2,29.86,SSW,202,3.0,11.0,71,0.00,,,0.26,Weather View 32 v70,2013-05-09 18:06:00,
2013-05-09 14:11:00,68.0,57.8,29.86,SW,225,3.0,11.0,70,0.00,,,0.26,Weather View 32 v70,2013-05-09 18:11:00,
2013-05-09 14:16:00,68.0,58.2,29.86,SSE,158,4.0,10.0,71,0.00,,,0.26,Weather View 32 v70,2013-05-09 18:16:00,
2013-05-09 14:21:00,68.0,58.2,29.86,SSW,202,4.0,10.0,71,0.00,,,0.26,Weather View 32 v70,2013-05-09 18:21:00,
2013-05-09 14:26:00,68.0,58.6,29.87,SSW,202,5.0,10.0,72,0.00,,,0.26,Weather View 32 v70,2013-05-09 18:26:00,
2013-05-09 14:31:00,68.0,58.6,29.86,SSW,202,6.0,10.0,72,0.00,,,0.26,Weather View 32 v70,2013-05-09 18:31:00,
2013-05-09 14:36:00,68.0,58.2,29.86,South,180,5.0,11.0,71,0.00,,,0.26,Weather View 32 v70,2013-05-09 18:36:00,
2013-05-09 14:41:00,68.0,57.8,29.86,South,180,5.0,15.0,70,0.00,,,0.26,Weather View 32 v70,2013-05-09 18:41:00,
2013-05-09 14:46:00,68.0,57.8,29.86,SSE,158,9.0,15.0,70,0.00,,,0.26,Weather View 32 v70,2013-05-09 18:46:00,
2013-05-09 14:54:00,68.0,57.0,29.86,SSE,158,3.0,15.0,68,0.00,,,0.26,Weather View 32 v70,2013-05-09 18:54:00,
2013-05-09 14:59:00,68.0,58.2,29.86,SE,135,11.0,15.0,71,0.00,,,0.26,Weather View 32 v70,2013-05-09 18:59:00,
2013-05-09 15:09:00,67.0,59.2,29.86,SSE,158,11.0,15.0,76,0.00,,,0.26,Weather View 32 v70,2013-05-09 19:09:00,
2013-05-09 15:14:00,68.0,59.8,29.86,ESE,112,8.0,15.0,75,0.00,,,0.26,Weather View 32 v70,2013-05-09 19:14:00,
2013-05-09 15:19:00,68.0,59.4,29.86,SSE,158,5.0,15.0,74,0.00,,,0.26,Weather View 32 v70,2013-05-09 19:19:00,
2013-05-09 15:24:00,68.0,59.0,29.86,ESE,112,4.0,15.0,73,0.00,,,0.26,Weather View 32 v70,2013-05-09 19:24:00,
2013-05-09 15:29:00,68.0,59.0,29.85,West,270,5.0,15.0,73,0.00,,,0.26,Weather View 32 v70,2013-05-09 19:29:00,
2013-05-09 15:39:00,68.0,58.2,29.85,South,180,10.0,15.0,71,0.00,,,0.26,Weather View 32 v70,2013-05-09 19:39:00,
2013-05-09 15:49:00,68.0,57.8,29.85,South,180,6.0,13.0,70,0.00,,,0.26,Weather View 32 v70,2013-05-09 19:49:00,
2013-05-09 15:59:00,69.0,58.8,29.85,SSE,158,7.0,13.0,70,0.00,,,0.26,Weather View 32 v70,2013-05-09 19:59:00,
2013-05-09 16:09:00,68.0,57.8,29.85,SE,135,6.0,14.0,70,0.00,,,0.26,Weather View 32 v70,2013-05-09 20:09:00,
2013-05-09 16:19:00,68.0,57.8,29.85,ESE,112,3.0,14.0,70,0.00,,,0.26,Weather View 32 v70,2013-05-09 20:19:00,
2013-05-09 16:29:00,69.0,58.8,29.86,SSE,158,3.0,14.0,70,0.00,,,0.26,Weather View 32 v70,2013-05-09 20:29:00,
2013-05-09 16:34:00,69.0,59.6,29.85,ESE,112,5.0,14.0,72,0.00,,,0.26,Weather View 32 v70,2013-05-09 20:34:00,
2013-05-09 16:44:00,68.0,58.6,29.85,SSE,158,3.0,14.0,72,0.00,,,0.26,Weather View 32 v70,2013-05-09 20:44:00,
2013-05-09 16:49:00,68.0,58.6,29.85,SSE,158,6.0,14.0,72,0.00,,,0.26,Weather View 32 v70,2013-05-09 20:49:00,
2013-05-09 16:54:00,68.0,58.6,29.85,South,180,6.0,14.0,72,0.00,,,0.26,Weather View 32 v70,2013-05-09 20:54:00,
2013-05-09 16:59:00,68.0,58.6,29.85,SSE,158,6.0,14.0,72,0.00,,,0.26,Weather View 32 v70,2013-05-09 20:59:00,
2013-05-09 17:09:00,68.0,59.0,29.85,SE,135,6.0,12.0,73,0.00,,,0.26,Weather View 32 v70,2013-05-09 21:09:00,
2013-05-09 17:19:00,68.0,58.2,29.85,South,180,5.0,12.0,71,0.00,,,0.26,Weather View 32 v70,2013-05-09 21:19:00,
2013-05-09 17:24:00,69.0,58.8,29.85,SSE,158,6.0,12.0,70,0.00,,,0.26,Weather View 32 v70,2013-05-09 21:24:00,
2013-05-09 17:29:00,69.0,58.8,29.85,SE,135,3.0,11.0,70,0.00,,,0.26,Weather View 32 v70,2013-05-09 21:29:00,
2013-05-09 17:39:00,68.0,58.2,29.85,South,180,3.0,11.0,71,0.00,,,0.26,Weather View 32 v70,2013-05-09 21:39:00,
2013-05-09 17:44:00,68.0,58.2,29.85,SE,135,5.0,11.0,71,0.00,,,0.26,Weather View 32 v70,2013-05-09 21:44:00,
2013-05-09 17:49:00,68.0,58.6,29.85,SSE,158,4.0,11.0,72,0.00,,,0.26,Weather View 32 v70,2013-05-09 21:49:00,
2013-05-09 17:54:00,68.0,58.2,29.85,East,90,1.0,11.0,71,0.00,,,0.26,Weather View 32 v70,2013-05-09 21:54:00,
2013-05-09 18:03:00,69.0,59.6,29.85,ESE,112,2.0,11.0,72,0.00,,,0.26,Weather View 32 v70,2013-05-09 22:03:00,
2013-05-09 18:09:00,70.0,59.3,29.85,ENE,68,1.0,11.0,69,0.00,,,0.26,Weather View 32 v70,2013-05-09 22:09:00,
2013-05-09 18:19:00,70.0,58.9,29.85,South,180,2.0,8.0,68,0.00,,,0.26,Weather View 32 v70,2013-05-09 22:19:00,
2013-05-09 18:29:00,70.0,59.7,29.85,ESE,112,2.0,8.0,70,0.00,,,0.26,Weather View 32 v70,2013-05-09 22:29:00,
2013-05-09 18:39:00,70.0,59.7,29.85,SSW,202,1.0,7.0,70,0.00,,,0.26,Weather View 32 v70,2013-05-09 22:39:00,
2013-05-09 18:44:00,70.0,59.7,29.85,ESE,112,3.0,7.0,70,0.00,,,0.26,Weather View 32 v70,2013-05-09 22:44:00,
2013-05-09 18:49:00,70.0,59.3,29.85,SE,135,1.0,7.0,69,0.00,,,0.26,Weather View 32 v70,2013-05-09 22:49:00,
2013-05-09 18:59:00,70.0,59.7,29.85,SSE,158,1.0,7.0,70,0.00,,,0.26,Weather View 32 v70,2013-05-09 22:59:00,
2013-05-09 19:09:00,69.0,59.2,29.85,SE,135,3.0,7.0,71,0.00,,,0.26,Weather View 32 v70,2013-05-09 23:09:00,
2013-05-09 19:19:00,68.0,59.0,29.85,ESE,112,3.0,6.0,73,0.00,,,0.26,Weather View 32 v70,2013-05-09 23:19:00,
2013-05-09 19:29:00,68.0,59.8,29.86,NE,45,0.0,5.0,75,0.00,,,0.26,Weather View 32 v70,2013-05-09 23:29:00,
2013-05-09 19:34:00,68.0,59.8,29.86,NNE,22,0.0,5.0,75,0.00,,,0.26,Weather View 32 v70,2013-05-09 23:34:00,
2013-05-09 19:39:00,68.0,60.1,29.86,ESE,112,1.0,5.0,76,0.00,,,0.26,Weather View 32 v70,2013-05-09 23:39:00,
2013-05-09 19:49:00,67.0,59.9,29.86,SE,135,2.0,5.0,78,0.00,,,0.26,Weather View 32 v70,2013-05-09 23:49:00,
2013-05-09 19:54:00,67.0,60.2,29.86,ESE,112,1.0,5.0,79,0.00,,,0.26,Weather View 32 v70,2013-05-09 23:54:00,
2013-05-09 19:59:00,66.0,59.6,29.87,East,90,1.0,5.0,80,0.00,,,0.26,Weather View 32 v70,2013-05-09 23:59:00,
2013-05-09 20:04:00,66.0,60.0,29.87,ENE,68,1.0,5.0,81,0.00,,,0.26,Weather View 32 v70,2013-05-10 00:04:00,
2013-05-09 20:09:00,66.0,60.0,29.88,West,270,1.0,4.0,81,0.00,,,0.26,Weather View 32 v70,2013-05-10 00:09:00,
2013-05-09 20:19:00,66.0,60.0,29.88,SE,135,2.0,3.0,81,0.00,,,0.26,Weather View 32 v70,2013-05-10 00:19:00,
2013-05-09 20:24:00,66.0,60.0,29.88,ESE,112,2.0,3.0,81,0.00,,,0.26,Weather View 32 v70,2013-05-10 00:24:00,
2013-05-09 20:29:00,66.0,60.0,29.88,ESE,112,2.0,3.0,81,0.00,,,0.26,Weather View 32 v70,2013-05-10 00:29:00,
2013-05-09 20:39:00,66.0,60.7,29.88,ESE,112,1.0,3.0,83,0.00,,,0.26,Weather View 32 v70,2013-05-10 00:39:00,
2013-05-09 20:44:00,66.0,60.7,29.88,SE,135,2.0,3.0,83,0.00,,,0.26,Weather View 32 v70,2013-05-10 00:44:00,
2013-05-09 20:49:00,66.0,60.7,29.88,East,90,1.0,3.0,83,0.00,,,0.26,Weather View 32 v70,2013-05-10 00:49:00,
2013-05-09 20:54:00,66.0,61.0,29.88,ENE,68,1.0,3.0,84,0.00,,,0.26,Weather View 32 v70,2013-05-10 00:54:00,
2013-05-09 21:05:00,65.0,60.0,29.88,ESE,112,1.0,3.0,84,0.00,,,0.26,Weather View 32 v70,2013-05-10 01:05:00,
2013-05-09 21:14:00,65.0,60.4,29.88,SE,135,2.0,3.0,85,0.00,,,0.26,Weather View 32 v70,2013-05-10 01:14:00,
2013-05-09 21:19:00,65.0,60.7,29.88,East,90,3.0,5.0,86,0.00,,,0.26,Weather View 32 v70,2013-05-10 01:19:00,
2013-05-09 21:24:00,65.0,60.7,29.89,ESE,112,1.0,5.0,86,0.00,,,0.26,Weather View 32 v70,2013-05-10 01:24:00,
2013-05-09 21:29:00,65.0,60.7,29.89,SE,135,1.0,5.0,86,0.00,,,0.26,Weather View 32 v70,2013-05-10 01:29:00,
2013-05-09 21:40:00,65.0,60.4,29.89,SE,135,2.0,5.0,85,0.00,,,0.26,Weather View 32 v70,2013-05-10 01:40:00,
2013-05-09 21:49:00,65.0,60.7,29.89,WSW,248,0.0,5.0,86,0.00,,,0.26,Weather View 32 v70,2013-05-10 01:49:00,
2013-05-09 21:54:00,64.0,59.7,29.89,West,270,1.0,5.0,86,0.00,,,0.26,Weather View 32 v70,2013-05-10 01:54:00,
2013-05-09 21:59:00,64.0,59.7,29.89,SSW,202,1.0,5.0,86,0.00,,,0.26,Weather View 32 v70,2013-05-10 01:59:00,
2013-05-09 22:05:00,64.0,59.7,29.89,SSE,158,2.0,5.0,86,0.00,,,0.26,Weather View 32 v70,2013-05-10 02:05:00,
2013-05-09 22:14:00,64.0,60.0,29.90,ESE,112,1.0,5.0,87,0.00,,,0.26,Weather View 32 v70,2013-05-10 02:14:00,
2013-05-09 22:19:00,63.0,59.4,29.90,SE,135,2.0,5.0,88,0.00,,,0.26,Weather View 32 v70,2013-05-10 02:19:00,
2013-05-09 22:29:00,62.0,59.6,29.90,ESE,112,1.0,3.0,92,0.00,,,0.26,Weather View 32 v70,2013-05-10 02:29:00,
2013-05-09 22:34:00,62.0,60.2,29.90,ESE,112,1.0,3.0,94,0.00,,,0.26,Weather View 32 v70,2013-05-10 02:34:00,
2013-05-09 22:39:00,62.0,60.8,29.90,East,90,1.0,3.0,96,0.00,,,0.26,Weather View 32 v70,2013-05-10 02:39:00,
2013-05-09 22:49:00,62.0,61.1,29.90,ESE,112,1.0,3.0,97,0.00,,,0.26,Weather View 32 v70,2013-05-10 02:49:00,
2013-05-09 22:54:00,61.0,60.7,29.90,ESE,112,2.0,3.0,99,0.00,,,0.26,Weather View 32 v70,2013-05-10 02:54:00,
2013-05-09 22:59:00,61.0,61.0,29.90,ESE,112,3.0,3.0,100,0.00,,,0.26,Weather View 32 v70,2013-05-10 02:59:00,
2013-05-09 23:06:00,60.0,60.0,29.90,ESE,112,2.0,3.0,100,0.00,,,0.26,Weather View 32 v70,2013-05-10 03:06:00,
2013-05-09 23:14:00,60.0,60.0,29.90,ESE,112,1.0,3.0,100,0.00,,,0.26,Weather View 32 v70,2013-05-10 03:14:00,
2013-05-09 23:24:00,60.0,60.0,29.90,SSW,202,1.0,3.0,100,0.00,,,0.26,Weather View 32 v70,2013-05-10 03:24:00,
2013-05-09 23:29:00,60.0,60.0,29.90,South,180,1.0,3.0,100,0.00,,,0.26,Weather View 32 v70,2013-05-10 03:29:00,
2013-05-09 23:34:00,60.0,60.0,29.90,South,180,1.0,3.0,100,0.00,,,0.26,Weather View 32 v70,2013-05-10 03:34:00,
2013-05-09 23:44:00,59.0,59.0,29.90,ESE,112,2.0,3.0,100,0.00,,,0.26,Weather View 32 v70,2013-05-10 03:44:00,
2013-05-09 23:49:00,59.0,59.0,29.90,ESE,112,1.0,3.0,100,0.00,,,0.26,Weather View 32 v70,2013-05-10 03:49:00,
2013-05-09 23:59:00,58.0,58.0,29.91,ENE,68,1.0,3.0,100,-0.26,,,0.00,Weather View 32 v70,2013-05-10 03:59:00,